Home   Weather   San Pedro Sula   Past weeks

Flag for Honduras Past Weather in San Pedro Sula, Honduras — Yesterday and Last 2 Weeks

Now
88 °F

Partly sunny.


Feels Like: 105 °F
Forecast: 73 / 90 °F
Wind: 5 mph from West

Location: La Mesa San Pedro Sula

Current Time: Sep 25, 2016 at 11:32:24 AM

Latest Report: Sep 25, 2016 at 11:00 AM


Visibility: N/A

Pressure: 29.92 "Hg

Humidity: 79%

Dew Point: 81 °F

Location of San Pedro SulaLocation

Past Weather in San Pedro Sula — Graph

°F

San Pedro Sula Temperature Yesterday

Maximum temperature yesterday: 93 °F (at 1:00 PM)
Minimum temperature yesterday: 73 °F (at 2:00 AM)
Average temperature yesterday: 81 °F

High & Low Weather Summary for the Past Weeks

 TemperatureHumidityPressure
High95 °F (Sep 15, 1:00 PM)100% (Sep 11, 12:00 AM)30.09 "Hg (Sep 11, 12:00 AM)
Low68 °F (Sep 22, 9:28 PM)53% (Sep 15, 2:00 PM)29.77 "Hg (Sep 13, 3:00 PM)
Average82 °F89%29.90 "Hg
* Reported Sep 10 10:00 AM — Sep 25 10:00 AM, San Pedro Sula, Weather by CustomWeather, © 2016

Note: Actual official high and low records may vary slightly from our data, if they occured in-between our weather recording intervals... More about our weather records

Advertising

San Pedro Sula Weather History for the Previous 24 Hours

Scroll right to see more
 ConditionsComfort  
Time TempWeatherWind HumidityBarometerVisibility
10:00 AM
Sun, Sep 25
84 °FPartly sunny.5 mph89%29.95 "HgN/A
9:00 AM81 °FPartly sunny.5 mph84%29.95 "HgN/A
8:00 AM77 °FPartly sunny.2 mph100%29.98 "HgN/A
7:00 AM75 °FPartly sunny.2 mph100%29.95 "HgN/A
6:00 AM73 °FPartly sunny.No wind100%29.92 "HgN/A
5:00 AM73 °FPartly cloudy.No wind100%29.89 "HgN/A
4:00 AM73 °FPartly cloudy.No wind100%29.89 "HgN/A
3:00 AM73 °FPartly cloudy.No wind100%29.89 "HgN/A
2:00 AM73 °FScattered showers. Partly cloudy.No wind100%29.92 "Hg5 mi
1:00 AM73 °FLight rain. Partly cloudy.No wind100%29.92 "HgN/A
12:00 AM73 °FLight rain. Partly cloudy.No wind100%29.92 "HgN/A
11:00 PM
Sat, Sep 24
73 °FThunderstorms. Mostly cloudy.7 mph100%29.95 "Hg5 mi
10:00 PM73 °FThunderstorms. Mostly cloudy.7 mph100%29.95 "Hg5 mi
9:00 PM73 °FThunderstorms. Mostly cloudy.6 mph100%29.98 "Hg3 mi
8:00 PM77 °FThunderstorms. Mostly cloudy.14 mph94%29.92 "Hg3 mi
7:00 PM82 °FThunderstorms. Passing clouds.9 mph89%29.89 "HgN/A
6:00 PM84 °FThunderstorms. Passing clouds.13 mph84%29.86 "HgN/A
5:00 PM88 °FScattered clouds.15 mph79%29.83 "HgN/A
4:00 PM90 °FScattered clouds.15 mph79%29.80 "HgN/A
3:00 PM93 °FScattered clouds.12 mph63%29.83 "HgN/A
2:00 PM93 °FBroken clouds.6 mph59%29.83 "HgN/A
1:00 PM93 °FBroken clouds.6 mph63%29.89 "HgN/A
12:00 PM91 °FBroken clouds.5 mph63%29.92 "HgN/A
11:00 AM90 °FBroken clouds.2 mph67%29.95 "HgN/A
Weather by CustomWeather, © 2016

See weather overviewHow to use our weather pages